Location: Ciula Mare
(45.6000°N, 22.8167°E)
Time: 05:02:04
(UTC+00:00)

Cosmos 2058 Rocket - Pass Details

Date: 03 February 2023
Orbit: 610 x 637 km, 82.5° (Epoch: 29 March)

Event Time Altitude Azimuth Distance (km) Brightness Sun altitude
Rises 16:23:44 0° 3° (N) 2,898 6.3 -8.5°
Reaches altitude 10° 16:26:24 10° 19° (NNE) 1,991 5.3 -8.9°
Maximum altitude 16:29:51 22° 70° (ENE) 1,365 4.2 -9.5°
Drops below altitude 10° 16:33:18 10° 122° (ESE) 1,993 5.3 -10.1°
Sets 16:35:57 0° 138° (SE) 2,899 6.2 -10.5°
